STARLINK-11483, 62223

Orbit data source: Space-Track

STARLINK-11483, 62223 is a payload satellite owned by SpaceX/Seattle (US) in LEO that was launched on Thu, 05 Dec 2024 UTC via an FALCON 9 launch vehicle from the Air Force Western Test Range (AFWTR). Payload-class satellites include a variety of spacecraft equipped with specific instruments for various scientific and technological missions. These include communications satellites like Starlink; space stations such as the ISS; scientific satellites like the Hubble; Earth observation satellites from companies like Planet Labs, Umbra, and HawkEye 360; GPS; miniature CubeSats for education and research; and military/defense satellites.

Loading next visibility...
Identifier
62223, 2024-231F
Orbit
LEO
Country
Flag of USUS
Related business
Manufacturer
SpaceX/Seattle
Mission
Operational Commercial Communications
Bus & Motor
STARLINK V2MD, Unknown motor
Mass
960 kg wet, ~910 kg dry
Launch date (UTC)
2024-12-05 (11 months ago)
Launch vehicle
FALCON 9
Launch site
Air Force Western Test Range (AFWTR)
Object type
Payload
Rocket body
Debris
Shape & HBR
Box + 2 Pan, 18.1 m
Radar Cross Section
36.964 m², Large (>1 m²)

Expand to show TLE details & history
Last TLE update: 15 hours ago

TLE from 15 hours ago
0 STARLINK-11483
1 62223U 24231F   25304.68573490  .00180954  00000-0  14638-2 0  9994
2 62223  53.1573  16.9393 0001038 110.4832 249.6298 15.69748642 53159
Epoch: 2025-10-31T16:27Z
TLE epoch observation values (Epoch: 2025-10-31T16:27:27.495Z)
Latitude
0.00003°
Longitude
89.84815°
Altitude
360.774 km
Speed
7.694 km/s
True Right ascension
01h 07m 45s
True Declination
0° 00' 00"
Sunlit
Object was in full shadow at epoch
Visualization orbit readout
Latitude
Unknown
Longitude
Unknown
Altitude
Unknown
Speed
Unknown
Apparent Right ascension
Unknown
Apparent Declination
Unknown
Sunlit
N/A
Visualization observer readout
Local Sidereal Time
03:08:33
Azimuth
Unknown
Elevation
Unknown
Doppler factor
Unknown
Orbital elements
Apogee altitude
360.577 km
Perigee altitude
359.178 km
Semi-major axis
6,738.014 km
Eccentricity
0.0001
Inclination
53.1573°
RAAN
16.9393°
Arg. of periapsis
110.4832°
True anomaly
249.61865°
Mean anomaly
249.6298°
Eccentric anomaly
249.62422°
Mean motion
3.92415 °/min
Orbital period
91.74 mins
BSTAR
0.0014638
Loading maneuver chart data...
Computing Atmospheric mass density...
Loading historical data...
Loading historical data...
Loading historical data...
Loading historical data...
Loading historical data...
Loading historical data...
Loading historical data...

Documentation

Showing up to 5 results
|